This demonstration page uses our WeatherBlox Daily Observations layout. Learn more.

Left ArrowRight Arrow

39.01783, -85.05884

Hourly Observations for October 19, 2016

Temp ( °F °C ) Dew Point ( °F °C ) Humidity (%) Winds ( mph kmh ) Pressure ( in mb ) Visibility ( mi km ) Precip ( " mm )
12:52 am 00:52 Cloudy 74 23.3 65 18.3 74 74 WSW 3 6 29.91 1013 10 16 0.00 0.03
1:52 am 01:52 Cloudy 72 22.2 66 18.9 82 82 W 3 6 29.91 1013 10 16 0.00 0.03
2:19 am 02:19 Cloudy 72 22 66 19 83 83 Calm 29.94 1014 10 16 0.00 0.00
2:46 am 02:46 Cloudy with Light Rain 73 23 66 19 78 78 WSW 7 11 29.94 1014 10 16 0.00 0.03
2:52 am 02:52 Cloudy 73 22.8 67 19.4 81 81 WSW 8 13 29.93 1013 10 16 0.00 0.03
3:52 am 03:52 Cloudy 72 22.2 67 19.4 84 84 W 3 6 29.94 1014 10 16 0.00 0.00
4:04 am 04:04 Cloudy 72 22 66 19 83 83 W 3 6 29.94 1014 10 16 0.00 0.00
4:52 am 04:52 Cloudy 72 22.2 68 20 87 87 WNW 8 13 29.95 1014 10 16 0.00 0.00
5:08 am 05:08 Cloudy 72 22 68 20 88 88 NW 9 15 29.97 1015 10 16 0.00 0.00
5:52 am 05:52 Cloudy 71 21.7 68 20 90 90 NW 3 6 29.98 1015 9 14 0.00 0.00
6:52 am 06:52 Cloudy 70 21.1 68 20 93 93 N 7 11 30.00 1016 7 11 0.00 0.00
7:30 am 07:30 Mostly Cloudy 70 21 64 18 83 83 NNE 8 13 30.00 1016 9 14 0.00 0.00
7:52 am 07:52 Mostly Cloudy 68 20 65 18.3 90 90 NNE 8 13 30.02 1017 8 13 0.00 0.00
8:52 am 08:52 Mostly Cloudy 68 20 65 18.3 90 90 NE 7 11 30.03 1017 8 13 0.00 0.00
9:17 am 09:17 Mostly Cloudy 68 20 64 18 88 88 NE 8 13 30.03 1017 7 11 0.00 0.00
9:52 am 09:52 Cloudy 69 20.6 65 18.3 87 87 ENE 5 7 30.04 1017 7 11 0.00 0.00
10:52 am 10:52 Cloudy with Haze 71 21.7 66 18.9 84 84 Calm 30.05 1018 6 10 0.00 0.00
11:23 am 11:23 Mostly Cloudy with Haze 75 24 68 20 78 78 SE 7 11 30.03 1017 6 10 0.00 0.00
11:52 am 11:52 Mostly Cloudy 75 23.9 68 20 79 79 SSE 10 17 30.04 1017 7 11 0.00 0.00
12:37 pm 12:37 Mostly Cloudy 75 24 70 21 83 83 VRB 3 6 30.03 1017 7 11 0.00 0.00
12:52 pm 12:52 Cloudy 76 24.4 69 20.6 79 79 S 6 9 30.04 1017 8 13 0.00 0.00
1:52 pm 13:52 Cloudy 76 24.4 68 20 77 77 VRB 5 7 30.02 1017 9 14 0.00 0.00
2:52 pm 14:52 Cloudy 76 24.4 69 20.6 79 79 SSW 6 9 30.00 1016 7 11 0.00 0.00
3:52 pm 15:52 Mostly Cloudy 78 25.6 68 20 71 71 SW 3 6 29.98 1015 7 11 0.00 0.00
4:52 pm 16:52 Partly Cloudy 78 25.6 68 20 71 71 VRB 3 6 29.97 1015 8 13 0.00 0.00
5:52 pm 17:52 Cloudy 75 23.9 69 20.6 82 82 ENE 9 15 29.95 1014 7 11 0.00 0.00
6:19 pm 18:19 Mostly Cloudy 75 24 68 20 78 78 ENE 12 19 29.97 1015 7 11 0.00 0.00
6:52 pm 18:52 Cloudy with Strong Thunderstorms 73 22.8 70 21.1 90 90 N 9 15 29.99 1016 2 3 0.08 2.03
7:04 pm 19:04 Cloudy with Strong Thunderstorms 72 22 70 21 94 94 W 5 7 30.00 1016 2 2 0.00 0.00
7:13 pm 19:13 Cloudy with Strong Thunderstorms 70 21 70 21 100 100 ESE 20 31 29.97 1015 1 2 0.66 16.76
7:23 pm 19:23 Cloudy with Thunderstorms 70 21 61 16 73 73 ESE 17 28 29.97 1015 7 11 0.71 18.03
7:36 pm 19:36 Cloudy with Thunderstorms 66 19 63 17 88 88 SE 8 13 29.97 1015 10 16 0.00 0.00
7:52 pm 19:52 Cloudy with Thunderstorms 68 20 64 17.8 87 87 SE 15 24 29.98 1015 10 16 0.71 18.03
8:52 pm 20:52 Cloudy with Thunderstorms 65 18.3 64 17.8 97 97 S 5 7 30.01 1016 5 8 0.06 1.52
9:21 pm 21:21 Cloudy with Strong Thunderstorms 64 18 64 18 100 100 S 8 13 30.00 1016 2 3 0.09 2.29
9:35 pm 21:35 Cloudy with Thunderstorms 64 18 64 18 100 100 S 7 11 30.00 1016 4 6 0.19 4.83
9:52 pm 21:52 Cloudy with Strong Thunderstorms 65 18.3 65 18.3 100 100 S 6 9 30.02 1017 3 5 0.29 7.37
10:14 pm 22:14 Cloudy with Light Rain 66 19 64 18 94 94 SSW 5 7 30.00 1016 6 10 0.00 0.00
10:52 pm 22:52 Cloudy with Light Rain 65 18.3 64 17.8 97 97 S 6 9 29.99 1016 10 16 0.11 2.79
11:52 pm 23:52 Cloudy 64 17.8 64 17.8 100 100 SSE 5 7 29.96 1014 10 16 0.00 0.03

Powered by AerisWeather